TimeMDT,TemperatureF,Dew PointF,Humidity,Sea Level PressureIn,VisibilityMPH,Wind Direction,Wind SpeedMPH,Gust SpeedMPH,PrecipitationIn,Events,Conditions,WindDirDegrees,DateUTC
12:15 AM,50.0,50.0,100,29.74,5.0,SSE,15.0,20.7,N/A,,Overcast,150,2014-03-27 06:15:00
12:35 AM,50.0,50.0,100,29.74,5.0,SSE,18.4,25.3,N/A,,Overcast,150,2014-03-27 06:35:00
12:55 AM,50.0,50.0,100,29.75,5.0,SSE,20.7,25.3,N/A,,Overcast,150,2014-03-27 06:55:00
1:15 AM,50.0,50.0,100,29.74,5.0,SSE,15.0,23.0,N/A,,Overcast,150,2014-03-27 07:15:00
1:35 AM,50.0,50.0,100,29.75,5.0,SSE,15.0,23.0,N/A,,Overcast,150,2014-03-27 07:35:00
1:55 AM,50.0,50.0,100,29.74,5.0,SSE,17.3,25.3,N/A,,Overcast,150,2014-03-27 07:55:00
2:15 AM,50.0,50.0,100,29.73,4.0,SSE,18.4,25.3,N/A,,Mostly Cloudy,150,2014-03-27 08:15:00
2:35 AM,50.0,50.0,100,29.73,4.0,SE,19.6,25.3,N/A,,Overcast,140,2014-03-27 08:35:00
2:55 AM,50.0,50.0,100,29.73,4.0,SSE,17.3,23.0,N/A,,Overcast,150,2014-03-27 08:55:00
3:15 AM,50.0,50.0,100,29.73,4.0,SSE,17.3,20.7,N/A,,Overcast,150,2014-03-27 09:15:00
3:35 AM,48.2,48.2,100,29.73,3.0,SSE,13.8,-,N/A,,Overcast,160,2014-03-27 09:35:00
3:55 AM,48.2,48.2,100,29.74,2.5,SSE,12.7,-,N/A,,Overcast,160,2014-03-27 09:55:00
5:50 AM,44.6,44.6,100,29.77,2.0,South,3.5,-,N/A,,Scattered Clouds,190,2014-03-27 11:50:00
6:13 AM,44.6,44.6,100,29.78,0.2,South,6.9,-,N/A,Fog,Fog,170,2014-03-27 12:13:00
6:50 AM,42.8,42.8,100,29.80,6.0,SSW,10.4,-,N/A,,Clear,200,2014-03-27 12:50:00
7:50 AM,48.2,35.6,62,29.82,10.0,SSW,11.5,-,N/A,,Clear,200,2014-03-27 13:50:00
8:50 AM,62.6,26.6,26,29.84,10.0,SW,18.4,-,N/A,,Clear,230,2014-03-27 14:50:00
9:50 AM,66.2,24.8,21,29.85,10.0,WSW,18.4,28.8,N/A,,Clear,240,2014-03-27 15:50:00
10:50 AM,68.0,23.0,18,29.85,10.0,WSW,26.5,32.2,N/A,,Clear,240,2014-03-27 16:50:00
11:50 AM,71.6,23.0,16,29.84,10.0,WSW,24.2,32.2,N/A,,Clear,240,2014-03-27 17:50:00
12:50 PM,73.4,19.4,13,29.81,10.0,WSW,29.9,35.7,N/A,,Clear,240,2014-03-27 18:50:00
1:50 PM,73.4,19.4,13,29.80,10.0,WSW,25.3,33.4,N/A,,Clear,240,2014-03-27 19:50:00
2:50 PM,75.2,19.4,12,29.78,10.0,WSW,26.5,34.5,N/A,,Clear,250,2014-03-27 20:50:00
3:50 PM,75.2,19.4,12,29.77,10.0,SW,21.9,35.7,N/A,,Clear,220,2014-03-27 21:50:00
4:50 PM,73.4,19.4,13,29.77,10.0,WSW,25.3,35.7,N/A,,Clear,240,2014-03-27 22:50:00
5:15 PM,73.4,19.4,13,29.77,10.0,WSW,26.5,38.0,N/A,,Clear,240,2014-03-27 23:15:00
5:35 PM,73.4,19.4,13,29.77,10.0,WSW,24.2,35.7,N/A,,Clear,240,2014-03-27 23:35:00
5:50 PM,73.4,19.4,13,29.77,10.0,WSW,21.9,33.4,N/A,,Clear,250,2014-03-27 23:50:00
5:55 PM,73.4,19.4,13,29.77,10.0,SW,23.0,32.2,N/A,,Clear,230,2014-03-27 23:55:00
6:15 PM,71.6,17.6,13,29.78,10.0,SW,23.0,29.9,N/A,,Clear,220,2014-03-28 00:15:00
6:35 PM,71.6,17.6,13,29.78,10.0,SW,21.9,28.8,N/A,,Clear,230,2014-03-28 00:35:00
6:55 PM,69.8,17.6,14,29.78,10.0,SW,18.4,24.2,N/A,,Clear,230,2014-03-28 00:55:00
7:15 PM,68.0,17.6,15,29.78,10.0,SW,13.8,-,N/A,,Clear,220,2014-03-28 01:15:00
7:35 PM,64.4,17.6,16,29.79,10.0,SW,12.7,-,N/A,,Clear,230,2014-03-28 01:35:00
7:55 PM,64.4,17.6,16,29.80,10.0,SW,11.5,-,N/A,,Clear,230,2014-03-28 01:55:00
8:15 PM,62.6,17.6,18,29.81,10.0,SSW,10.4,16.1,N/A,,Clear,210,2014-03-28 02:15:00
8:35 PM,59.0,17.6,20,29.82,10.0,SSW,6.9,-,N/A,,Clear,200,2014-03-28 02:35:00
8:55 PM,59.0,17.6,20,29.82,10.0,SW,13.8,-,N/A,,Clear,220,2014-03-28 02:55:00
9:15 PM,62.6,19.4,19,29.82,10.0,SW,12.7,-,N/A,,Clear,230,2014-03-28 03:15:00
9:35 PM,59.0,19.4,22,29.83,10.0,WSW,11.5,-,N/A,,Clear,240,2014-03-28 03:35:00
9:55 PM,59.0,19.4,22,29.84,10.0,SW,11.5,-,N/A,,Clear,230,2014-03-28 03:55:00
10:15 PM,59.0,19.4,22,29.84,10.0,SW,10.4,-,N/A,,Clear,230,2014-03-28 04:15:00
10:35 PM,55.4,21.2,26,29.84,10.0,SW,8.1,-,N/A,,Clear,230,2014-03-28 04:35:00
10:55 PM,55.4,21.2,26,29.84,10.0,WSW,10.4,-,N/A,,Clear,240,2014-03-28 04:55:00
11:15 PM,55.4,21.2,26,29.84,10.0,WSW,11.5,-,N/A,,Clear,250,2014-03-28 05:15:00
11:35 PM,57.2,23.0,27,29.82,10.0,West,13.8,-,N/A,,Clear,270,2014-03-28 05:35:00
11:55 PM,59.0,23.0,25,29.82,10.0,West,15.0,-,N/A,,Clear,270,2014-03-28 05:55:00